This is the latest recevied weather packets stored in our database for station/object W4DEX-2. If no packets are shown the sender has not sent any weather packets the latest 10 day(s).
| Time | Temp. | Humidity | Pressure | Rain* | Wind** | Luminosity | Snow |
|---|---|---|---|---|---|---|---|
| 1777274403 | 11.11° C | 69% | 1020.2 hPa | 0 mm | 4.92 m/s, 167° | - | - |
| 1777274102 | 11.11° C | 69% | 1020.1 hPa | 0 mm | 3.13 m/s, 173° | - | - |
| 1777273802 | 11.11° C | 68% | 1020.2 hPa | 0 mm | 4.02 m/s, 165° | - | - |
| 1777273502 | 11.11° C | 69% | 1020.2 hPa | 0 mm | 4.47 m/s, 180° | - | - |
| 1777272902 | 11.11° C | 69% | 1020.1 hPa | 0 mm | 3.13 m/s, 176° | - | - |
| 1777272602 | 11.67° C | 69% | 1020.2 hPa | 0 mm | 3.58 m/s, 167° | - | - |
| 1777272302 | 11.67° C | 69% | 1020.2 hPa | 0 mm | 3.13 m/s, 157° | - | - |
| 1777271703 | 11.67° C | 69% | 1020.2 hPa | 0 mm | 3.58 m/s, 173° | - | - |
| 1777271102 | 11.67° C | 68% | 1020.2 hPa | 0 mm | 3.13 m/s, 173° | - | - |
| 1777270802 | 11.67° C | 68% | 1020.2 hPa | 0 mm | 4.02 m/s, 178° | - | - |
| 1777270203 | 11.67° C | 68% | 1020.3 hPa | 0 mm | 4.47 m/s, 172° | - | - |
| 1777269902 | 11.67° C | 68% | 1020.3 hPa | 0 mm | 4.02 m/s, 168° | - | - |
| 1777269602 | 11.67° C | 68% | 1020.2 hPa | 0 mm | 4.92 m/s, 169° | - | - |
| 1777269003 | 11.67° C | 68% | 1020.2 hPa | 0 mm | 4.92 m/s, 168° | - | - |
| 1777268402 | 12.22° C | 69% | 1020.2 hPa | 0 mm | 4.47 m/s, 174° | - | - |
| 1777268102 | 12.22° C | 69% | 1020.3 hPa | 0 mm | 4.47 m/s, 173° | - | - |
| 1777267803 | 12.22° C | 68% | 1020.3 hPa | 0 mm | 4.47 m/s, 175° | - | - |
| 1777267503 | 12.22° C | 68% | 1020.3 hPa | 0 mm | 4.92 m/s, 180° | - | - |
| 1777266902 | 12.22° C | 68% | 1020.2 hPa | 0 mm | 3.58 m/s, 167° | - | - |
| 1777266602 | 12.22° C | 68% | 1020.1 hPa | 0 mm | 4.92 m/s, 153° | - | - |
| 1777266302 | 12.22° C | 68% | 1020 hPa | 0 mm | 4.47 m/s, 178° | - | - |
| 1777266002 | 12.22° C | 68% | 1020.1 hPa | 0 mm | 4.02 m/s, 174° | - | - |
| 1777265703 | 12.78° C | 68% | 1019.8 hPa | 0 mm | 4.92 m/s, 166° | - | - |
| 1777265403 | 12.78° C | 69% | 1020 hPa | 0 mm | 4.92 m/s, 164° | - | - |
| 1777265117 | 12.78° C | 68% | 1019.8 hPa | 0 mm | 3.13 m/s, 153° | - | - |
* Rain latest hour (hover to see other rain measurements)
** Current wind speed in m/s (hover to see current wind gust speed)